This demonstration page uses our WeatherBlox Daily Observations layout. Learn more.

Left ArrowRight Arrow

38.20091, -84.87328

Hourly Observations for October 7, 2022

Temp ( °F °C ) Dew Point ( °F °C ) Humidity (%) Winds ( mph kmh ) Pressure ( in mb ) Visibility ( mi km ) Precip ( " mm )
12:53 am 00:53 Clear 51 10.6 46 7.8 83 83 Calm 30.06 1018 10 16 0.00 0.00
1:53 am 01:53 Clear 51 10.6 48 8.9 89 89 Calm 30.06 1018 10 16 0.00 0.00
2:53 am 02:53 Clear 50 10 47 8.3 89 89 Calm 30.06 1018 10 16 0.00 0.00
3:53 am 03:53 Clear 49 9.4 46 7.8 90 90 Calm 30.06 1018 10 16 0.00 0.00
4:53 am 04:53 Clear 49 9.4 46 7.8 90 90 NNW 3 6 30.07 1018 10 16 0.00 0.00
5:53 am 05:53 Clear 46 7.8 44 6.7 93 93 Calm 30.09 1019 10 16 0.00 0.00
6:53 am 06:53 Clear 49 9.4 46 7.8 90 90 NNW 7 11 30.11 1020 10 16 0.00 0.00
7:53 am 07:53 Sunny 52 11.1 48 8.9 86 86 N 6 9 30.14 1021 10 16 0.00 0.00
8:53 am 08:53 Sunny 55 12.8 49 9.4 80 80 NNW 8 13 30.17 1022 10 16 0.00 0.00
9:53 am 09:53 Mostly Cloudy 56 13.3 47 8.3 72 72 N 8 13 30.20 1023 10 16 0.00 0.00
10:53 am 10:53 Cloudy 59 15 47 8.3 64 64 N 9 15 30.22 1023 10 16 0.00 0.00
11:53 am 11:53 Mostly Cloudy 60 15.6 47 8.3 62 62 NNW 10 17 30.23 1024 10 16 0.00 0.00
12:53 pm 12:53 Mostly Sunny 63 17.2 44 6.7 50 50 N 10 17 30.22 1024 10 16 0.00 0.00
1:53 pm 13:53 Partly Cloudy 65 18.3 44 6.7 47 47 NNW 12 19 30.22 1023 10 16 0.00 0.00
2:53 pm 14:53 Partly Cloudy 66 18.9 43 6.1 43 43 NW 13 20 30.21 1023 10 16 0.00 0.00
3:53 pm 15:53 Sunny 65 18.3 39 3.9 38 38 WNW 12 19 30.20 1023 10 16 0.00 0.00
4:53 pm 16:53 Sunny 64 17.8 35 1.7 34 34 NW 14 22 30.21 1023 10 16 0.00 0.00
5:53 pm 17:53 Sunny 63 17.2 33 0.6 33 33 NW 12 19 30.22 1023 10 16 0.00 0.00
6:53 pm 18:53 Sunny 59 15 35 1.7 40 40 NW 8 13 30.24 1024 10 16 0.00 0.00
7:53 pm 19:53 Clear 55 12.8 36 2.2 48 48 NNW 7 11 30.26 1025 10 16 0.00 0.00
8:53 pm 20:53 Clear 52 11.1 37 2.8 57 57 NNW 7 11 30.28 1025 10 16 0.00 0.00
9:53 pm 21:53 Clear 52 11.1 37 2.8 57 57 NNW 6 9 30.30 1026 10 16 0.00 0.00
10:53 pm 22:53 Clear 50 10 37 2.8 61 61 Calm 30.32 1027 10 16 0.00 0.00
11:53 pm 23:53 Clear 45 7.2 37 2.8 74 74 Calm 30.34 1027 10 16 0.00 0.00

Powered by AerisWeather